GW1851 Weather Reports


time (UTC)temp
F
wind
direction
speed
knots
gust
knots
rain 1hr
in
rain 24hr
in
rain mn
in
humidity
%
barometer
mb
20260906135707 74 222 0.9 0.9 0.00 0.00 0.00 92 1018.6
20260906135203 74 105 0.9 0.9 0.00 0.00 0.00 93 1018.5
20260906134658 74 218 0.0 0.9 0.00 0.00 0.00 94 1018.5
20260906134153 74 218 0.0 0.0 0.00 0.00 0.00 94 1018.6
20260906133649 73 210 0.0 0.0 0.00 0.00 0.00 95 1018.6
20260906133144 73 213 0.0 0.0 0.00 0.00 0.00 95 1018.6
20260906132639 73 223 0.9 0.9 0.00 0.00 0.00 95 1018.6
20260906132135 73 209 0.0 0.0 0.00 0.00 0.00 95 1018.6
20260906131630 73 167 0.0 0.0 0.00 0.00 0.00 95 1018.8
20260906131125 73 216 0.9 0.9 0.00 0.00 0.00 95 1018.4
20260906130621 73 219 0.0 0.0 0.00 0.00 0.00 96 1018.3
20260906130115 73 210 0.0 0.0 0.00 0.00 0.00 96 1018.2
20260906125613 73 209 0.0 0.0 0.00 0.00 0.00 96 1018.6
20260906125106 72 209 0.0 0.9 0.00 0.00 0.00 96 1018.4
20260906124602 72 212 0.0 0.0 0.00 0.00 0.00 96 1018.1
20260906124057 72 221 0.0 0.0 0.00 0.00 0.00 96 1018.2
20260906123556 72 213 0.0 0.0 0.00 0.00 0.00 96 1018.1
20260906123051 72 218 0.0 0.0 0.00 0.00 0.00 96 1018.1
20260906122550 72 220 0.0 0.0 0.00 0.00 0.00 97 1018.0
20260906122046 72 221 0.0 0.0 0.00 0.00 0.00 97 1018.2
20260906121542 72 219 0.0 0.0 0.00 0.00 0.00 97 1017.9
20260906121039 72 216 0.0 0.0 0.00 0.00 0.00 97 1018.1
20260906120534 72 220 0.0 0.0 0.00 0.00 0.00 97 1018.2
20260906120031 72 228 0.0 0.0 0.00 0.00 0.00 97 1017.7
20260906115531 72 221 0.0 0.0 0.00 0.00 0.00 97 1017.7
20260906115026 72 222 0.0 0.0 0.00 0.00 0.00 97 1017.5
20260906114520 72 225 0.0 0.0 0.00 0.00 0.00 97 1017.4
20260906114016 72 225 0.0 0.0 0.00 0.00 0.00 97 1017.4
20260906113515 72 220 0.0 0.0 0.00 0.00 0.00 97 1017.2
20260906113010 72 218 0.0 0.0 0.00 0.00 0.00 97 1017.4
20260906112505 72 217 0.0 0.0 0.00 0.00 0.00 97 1017.1
20260906112001 71 219 0.0 0.0 0.00 0.00 0.00 97 1017.1
20260906111501 71 218 0.0 0.0 0.00 0.00 0.00 97 1017.1
20260906110956 71 217 0.0 0.0 0.00 0.00 0.00 97 1017.0
20260906110450 71 216 0.0 0.0 0.00 0.00 0.00 97 1016.9
20260906105949 71 229 0.0 0.0 0.00 0.00 0.00 97 1016.8
20260906105445 71 222 0.0 0.0 0.00 0.00 0.00 97 1016.9
20260906104941 71 220 0.0 0.0 0.00 0.00 0.00 97 1016.9
20260906104440 71 225 0.0 0.0 0.00 0.00 0.00 97 1016.8
20260906103939 71 231 0.0 0.0 0.00 0.00 0.00 97 1016.7
20260906103437 71 210 0.0 0.0 0.00 0.00 0.00 97 1016.8
20260906102932 71 218 0.0 0.0 0.00 0.00 0.00 97 1016.8
20260906102427 71 217 0.0 0.0 0.00 0.00 0.00 97 1016.6
20260906101922 71 223 0.0 0.0 0.00 0.00 0.00 97 1016.6
20260906101417 71 221 0.0 0.0 0.00 0.00 0.00 97 1016.6
20260906100912 71 214 0.0 0.0 0.00 0.00 0.00 97 1016.4
20260906100412 71 216 0.0 0.0 0.00 0.00 0.00 97 1016.5
20260906095907 71 209 0.0 0.0 0.00 0.00 0.00 97 1016.4
20260906095403 71 220 0.0 0.0 0.00 0.00 0.00 97 1016.5
20260906094902 71 226 0.0 0.0 0.00 0.00 0.00 97 1016.7
20260906094356 71 214 0.0 0.0 0.00 0.00 0.00 97 1016.6
20260906093853 71 215 0.0 0.0 0.00 0.00 0.00 97 1016.2
20260906093348 71 212 0.0 0.0 0.00 0.00 0.00 97 1016.4
20260906092843 71 231 0.0 0.0 0.00 0.00 0.00 97 1016.4
20260906092337 71 219 0.0 0.0 0.00 0.00 0.00 97 1016.0
20260906091833 71 212 0.0 0.0 0.00 0.00 0.00 97 1016.2
20260906091329 71 213 0.0 0.0 0.00 0.00 0.00 96 1016.2
20260906090826 71 208 0.0 0.0 0.00 0.00 0.00 96 1016.4
20260906090324 71 215 0.0 0.0 0.00 0.00 0.00 96 1016.3
20260906085825 71 217 0.0 0.0 0.00 0.00 0.00 96 1016.3
20260906085324 71 219 0.0 0.0 0.00 0.00 0.00 96 1016.5
20260906084818 71 218 0.0 0.0 0.00 0.00 0.00 95 1016.6
20260906084318 71 221 0.0 0.0 0.00 0.00 0.00 95 1016.8
20260906083807 71 215 0.0 0.0 0.00 0.00 0.00 95 1016.6
20260906083303 72 217 0.0 0.0 0.00 0.00 0.00 95 1016.5
20260906082757 72 203 0.0 0.0 0.00 0.00 0.00 95 1016.2
20260906082252 72 215 0.0 0.0 0.00 0.00 0.00 95 1016.4
20260906081748 72 192 0.0 0.0 0.00 0.00 0.00 95 1016.5
20260906081243 72 233 0.0 0.0 0.00 0.00 0.00 95 1016.5
20260906080739 72 243 0.0 0.0 0.00 0.00 0.00 95 1016.5
20260906080236 72 229 0.9 0.9 0.00 0.00 0.00 96 1016.7
20260906075729 72 218 0.0 0.0 0.00 0.00 0.00 96 1016.4
20260906075224 72 221 0.9 0.9 0.00 0.00 0.00 96 1016.6
20260906074719 72 216 0.0 0.0 0.00 0.00 0.00 96 1016.8
20260906074219 72 211 0.0 0.0 0.00 0.00 0.00 95 1016.9
20260906073713 73 240 0.0 0.9 0.00 0.00 0.00 95 1016.8
20260906073208 73 206 0.0 0.0 0.00 0.00 0.00 95 1016.7
20260906072704 73 219 0.0 0.9 0.00 0.00 0.00 95 1016.8
20260906072159 73 220 0.0 0.0 0.00 0.00 0.00 95 1016.7
20260906071655 73 218 0.0 0.0 0.00 0.00 0.00 95 1016.7
20260906071155 73 211 0.0 0.0 0.00 0.00 0.00 95 1016.6
20260906070652 73 210 0.0 0.0 0.00 0.00 0.00 95 1016.7
20260906070147 73 211 0.0 0.0 0.00 0.00 0.00 95 1016.6
20260906065647 73 211 0.0 0.0 0.00 0.00 0.00 95 1016.8
20260906065142 73 213 0.0 0.0 0.00 0.00 0.00 95 1017.0
20260906064638 73 182 0.0 0.9 0.00 0.00 0.00 95 1016.9
20260906064133 74 214 0.0 0.0 0.00 0.00 0.00 95 1017.0
20260906063628 74 209 0.0 0.0 0.00 0.00 0.00 95 1016.7
20260906063124 74 206 0.0 0.0 0.00 0.00 0.00 94 1016.8
20260906062620 74 215 0.0 0.0 0.00 0.00 0.00 94 1016.9
20260906062118 74 209 0.0 0.0 0.00 0.00 0.00 94 1016.7
20260906061615 74 218 0.0 0.9 0.00 0.00 0.00 94 1016.8
20260906061114 74 211 0.0 0.0 0.00 0.00 0.00 94 1016.7
20260906060611 74 192 0.0 0.0 0.00 0.00 0.00 94 1016.7
20260906060108 74 206 0.0 0.0 0.00 0.00 0.00 94 1017.0
20260906055603 74 211 0.9 0.9 0.00 0.00 0.00 94 1016.9
20260906055058 74 245 0.0 0.0 0.00 0.00 0.00 95 1016.9
20260906054558 74 211 0.0 0.0 0.00 0.00 0.00 95 1016.6
20260906054053 74 218 0.0 0.0 0.00 0.00 0.00 95 1016.5
20260906053550 74 216 0.0 0.0 0.00 0.00 0.00 95 1016.4
20260906053045 74 219 0.0 0.0 0.00 0.00 0.00 95 1016.4
20260906052541 74 218 0.0 0.9 0.00 0.00 0.00 95 1016.3
20260906052038 74 212 0.0 0.0 0.00 0.00 0.00 94 1016.1
20260906051533 75 190 0.0 0.9 0.00 0.00 0.00 95 1015.9
20260906051028 75 225 0.0 0.0 0.00 0.00 0.00 95 1016.0
20260906050524 75 224 0.0 0.0 0.00 0.00 0.00 94 1016.1
20260906050018 75 226 0.0 0.0 0.00 0.00 0.00 94 1016.0
20260906045516 75 210 0.0 0.0 0.00 0.00 0.00 94 1015.9
20260906045013 75 204 0.0 0.0 0.00 0.00 0.00 94 1016.2
20260906044508 75 219 0.0 0.0 0.00 0.00 0.00 94 1015.9
20260906044004 75 224 0.0 0.0 0.00 0.00 0.00 94 1016.0
20260906043459 75 224 0.0 0.0 0.00 0.00 0.00 94 1016.0
20260906042955 75 224 0.0 0.0 0.00 0.00 0.00 93 1015.9
20260906042454 75 224 0.0 0.0 0.00 0.00 0.00 93 1015.8
20260906041953 76 224 0.0 0.0 0.00 0.00 0.00 93 1015.9
20260906041450 76 224 0.0 0.0 0.00 0.00 0.00 93 1015.9
20260906040949 76 225 0.0 0.0 0.00 0.00 0.00 93 1015.8
20260906040444 76 212 0.0 0.0 0.00 0.00 0.00 92 1015.9
20260906035940 77 215 0.0 0.0 0.00 0.00 0.00 93 1015.6
20260906035435 77 221 0.0 0.0 0.00 0.00 0.00 92 1015.4
20260906034930 77 213 0.0 0.0 0.00 0.00 0.00 91 1015.6
20260906034425 77 207 0.0 0.0 0.00 0.00 0.00 91 1015.7
20260906033920 77 216 0.0 0.0 0.00 0.00 0.00 91 1015.5
20260906033415 77 207 0.0 0.0 0.00 0.00 0.00 91 1015.5
20260906032911 78 208 0.0 0.0 0.00 0.00 0.00 90 1015.7
20260906032407 78 212 0.0 0.0 0.00 0.00 0.00 90 1015.6
20260906031901 78 211 0.0 0.0 0.00 0.00 0.00 89 1015.3
20260906031356 78 213 0.0 0.0 0.00 0.00 0.00 89 1015.2
20260906030852 79 258 0.9 0.9 0.00 0.00 0.00 89 1015.4
20260906030346 79 212 0.0 0.0 0.00 0.00 0.00 89 1015.4
20260906025841 79 211 0.0 0.0 0.00 0.00 0.00 89 1015.4
20260906025335 79 180 0.9 0.9 0.00 0.00 0.00 89 1015.2
20260906024834 80 236 0.9 0.9 0.00 0.00 0.00 89 1015.2
20260906024333 80 211 0.0 0.9 0.00 0.00 0.00 89 1015.5
20260906023829 80 206 0.0 0.0 0.00 0.00 0.00 88 1015.2
20260906023324 80 233 0.0 0.0 0.00 0.00 0.00 88 1015.0
20260906022820 81 210 0.0 0.9 0.00 0.00 0.00 87 1014.8
20260906022315 81 218 0.9 1.7 0.00 0.00 0.00 87 1015.0
20260906021811 81 210 0.9 0.9 0.00 0.00 0.00 87 1014.6
20260906021309 81 226 0.9 0.9 0.00 0.00 0.00 87 1014.5
20260906020804 82 198 0.9 0.9 0.00 0.00 0.00 88 1014.3
20260906020304 82 204 0.9 0.9 0.00 0.00 0.00 88 1014.3
20260906015759 82 210 0.0 0.0 0.00 0.00 0.00 88 1014.4
20260906015257 82 150 0.9 0.9 0.00 0.00 0.00 89 1014.4
20260906014751 82 242 0.9 0.9 0.00 0.00 0.00 88 1014.2
20260906014247 82 233 0.9 0.9 0.00 0.00 0.00 89 1014.2
20260906013743 83 221 0.9 0.9 0.00 0.00 0.00 88 1014.1
20260906013243 83 198 1.7 1.7 0.00 0.00 0.00 88 1013.9
20260906012739 83 237 0.9 0.9 0.00 0.00 0.00 88 1014.0
20260906012234 83 241 1.7 2.6 0.00 0.00 0.00 87 1014.1
20260906011729 84 265 2.6 2.6 0.00 0.00 0.00 86 1013.9
20260906011229 84 221 0.9 1.7 0.00 0.00 0.00 86 1014.0
20260906010724 84 234 0.9 0.9 0.00 0.00 0.00 85 1013.6
20260906010220 84 221 0.0 0.9 0.00 0.00 0.00 85 1013.6
20260906005715 84 221 0.0 0.0 0.00 0.00 0.00 85 1013.8
20260906005215 85 220 0.0 0.0 0.00 0.00 0.00 85 1013.5
20260906004714 85 217 0.0 0.0 0.00 0.00 0.00 85 1013.4
20260906004209 85 223 0.0 0.0 0.00 0.00 0.00 85 1013.6
20260906003704 86 218 0.0 0.0 0.00 0.00 0.00 84 1013.5
20260906003159 86 219 0.0 0.0 0.00 0.00 0.00 84 1013.3
20260906002654 86 240 0.9 0.9 0.00 0.00 0.00 84 1013.4
20260906002149 86 222 0.0 0.0 0.00 0.00 0.00 84 1013.3
20260906001644 86 223 0.0 0.0 0.00 0.00 0.00 84 1013.4
20260906001144 87 221 0.0 0.0 0.00 0.00 0.00 84 1013.6
20260906000639 87 221 0.0 0.0 0.00 0.00 0.00 83 1013.7
20260906000135 87 221 0.0 0.0 0.00 0.00 0.00 81 1013.3
20260905235633 88 222 0.0 0.0 0.00 0.00 0.00 80 1013.4
20260905235129 88 222 0.0 0.0 0.00 0.00 0.00 79 1013.5
20260905234624 88 216 0.0 0.0 0.00 0.00 0.00 79 1013.4
20260905234120 88 221 0.0 0.0 0.00 0.00 0.00 79 1013.3
20260905233614 89 232 0.0 0.0 0.00 0.00 0.00 79 1013.4
20260905233108 89 216 0.0 0.0 0.00 0.00 0.00 78 1013.4
20260905232604 89 217 0.0 0.0 0.00 0.00 0.00 77 1013.5
20260905232059 89 219 0.9 0.9 0.00 0.00 0.00 77 1013.2
20260905231554 90 228 0.0 0.9 0.00 0.00 0.00 77 1013.3
20260905231051 90 218 0.0 0.0 0.00 0.00 0.00 78 1013.4
20260905230550 90 227 0.0 0.0 0.00 0.00 0.00 77 1013.1
20260905230049 90 220 0.0 0.0 0.00 0.00 0.00 77 1013.2
20260905225549 90 235 0.9 0.9 0.00 0.00 0.00 76 1013.2
20260905225044 90 228 0.9 0.9 0.00 0.00 0.00 76 1013.2
20260905224544 90 206 0.9 0.9 0.00 0.00 0.00 77 1013.3
20260905224043 89 226 0.0 0.0 0.00 0.00 0.00 79 1013.3
20260905223541 89 221 0.0 0.0 0.00 0.00 0.00 79 1013.1
20260905223037 89 226 0.0 0.9 0.00 0.00 0.00 78 1013.3
20260905222537 89 218 0.0 0.9 0.00 0.00 0.00 79 1013.3
20260905222032 89 220 0.0 0.0 0.00 0.00 0.00 78 1013.0
20260905221528 90 225 0.0 0.0 0.00 0.00 0.00 78 1013.2
20260905221024 90 220 0.0 0.9 0.00 0.00 0.00 78 1013.4
20260905220520 90 213 0.9 0.9 0.00 0.00 0.00 77 1013.2
20260905220016 90 217 0.0 0.9 0.00 0.00 0.00 76 1013.2
20260905215510 91 227 0.0 0.0 0.00 0.00 0.00 76 1013.3
20260905215006 91 311 2.6 2.6 0.00 0.00 0.00 74 1013.4
20260905214502 91 234 0.9 0.9 0.00 0.00 0.00 75 1013.3
20260905214002 91 195 0.0 0.0 0.00 0.00 0.00 74 1013.5
20260905213457 91 238 0.9 0.9 0.00 0.00 0.00 73 1013.3
20260905212953 91 216 0.0 0.0 0.00 0.00 0.00 73 1013.3
20260905212447 91 240 0.0 0.9 0.00 0.00 0.00 73 1013.3
20260905211946 92 244 0.9 0.9 0.00 0.00 0.00 71 1013.2
20260905211442 93 232 1.7 1.7 0.00 0.00 0.00 72 1013.0
20260905210938 93 203 1.7 1.7 0.00 0.00 0.00 70 1013.2
20260905210432 94 227 0.0 0.0 0.00 0.00 0.00 70 1013.3
20260905205932 93 219 0.0 0.0 0.00 0.00 0.00 70 1013.3
20260905205427 94 222 0.0 0.0 0.00 0.00 0.00 69 1013.4
20260905204926 93 224 0.0 0.0 0.00 0.00 0.00 69 1013.6
20260905204422 93 229 0.9 0.9 0.00 0.00 0.00 69 1013.3
20260905203921 94 228 0.0 0.0 0.00 0.00 0.00 69 1013.4
20260905203416 94 221 0.0 0.0 0.00 0.00 0.00 68 1013.4
20260905202912 94 213 0.9 0.9 0.00 0.00 0.00 68 1013.5
20260905202407 94 145 0.0 0.9 0.00 0.00 0.00 65 1013.5
20260905201902 94 245 1.7 1.7 0.00 0.00 0.00 65 1013.6
20260905201357 95 233 2.6 2.6 0.00 0.00 0.00 64 1013.5
20260905200851 95 239 0.9 0.9 0.00 0.00 0.00 64 1013.6
20260905200348 95 61 2.6 2.6 0.00 0.00 0.00 65 1013.6
20260905195846 95 219 0.9 0.9 0.00 0.00 0.00 67 1013.7
20260905195341 95 232 0.0 0.0 0.00 0.00 0.00 66 1013.7
20260905194837 95 222 0.0 0.0 0.00 0.00 0.00 69 1013.8
20260905194336 94 182 0.9 0.9 0.00 0.00 0.00 70 1013.9
20260905193836 94 280 0.9 1.7 0.00 0.00 0.00 67 1013.8
20260905193331 94 246 0.9 1.7 0.00 0.00 0.00 67 1013.7
20260905192827 95 246 1.7 1.7 0.00 0.00 0.00 65 1013.9
20260905192322 95 220 0.0 0.0 0.00 0.00 0.00 64 1013.8
20260905191821 95 255 0.9 0.9 0.00 0.00 0.00 66 1013.8
20260905191320 95 219 0.9 1.7 0.00 0.00 0.00 66 1013.8
20260905190819 96 222 0.0 0.9 0.00 0.00 0.00 68 1013.8
20260905190313 96 218 0.0 0.0 0.00 0.00 0.00 63 1013.8
20260905185811 95 228 0.0 0.0 0.00 0.00 0.00 65 1013.7
20260905185307 95 252 0.9 0.9 0.00 0.00 0.00 63 1013.8
20260905184801 95 258 0.9 0.9 0.00 0.00 0.00 66 1013.8
20260905184259 95 287 1.7 2.6 0.00 0.00 0.00 63 1014.1
20260905183753 96 241 0.9 1.7 0.00 0.00 0.00 62 1014.1
20260905183248 96 219 0.9 0.9 0.00 0.00 0.00 60 1014.1
20260905182747 95 243 2.6 4.3 0.00 0.00 0.00 63 1014.2
20260905182242 96 235 3.5 4.3 0.00 0.00 0.00 61 1014.2
20260905181737 96 211 0.9 0.9 0.00 0.00 0.00 60 1014.5
20260905181236 96 220 0.9 0.9 0.00 0.00 0.00 62 1014.4
20260905180732 95 255 1.7 1.7 0.00 0.00 0.00 63 1014.5
20260905180227 95 99 1.7 2.6 0.00 0.00 0.00 62 1014.4
20260905175726 95 92 2.6 2.6 0.00 0.00 0.00 64 1014.3
20260905175221 95 258 0.9 1.7 0.00 0.00 0.00 65 1014.4
20260905174716 95 221 0.9 0.9 0.00 0.00 0.00 63 1014.5
20260905174212 95 145 2.6 2.6 0.00 0.00 0.00 63 1014.5
20260905173708 95 196 0.9 0.9 0.00 0.00 0.00 62 1014.7
20260905173203 95 263 2.6 2.6 0.00 0.00 0.00 63 1015.0
20260905172703 95 268 2.6 2.6 0.00 0.00 0.00 64 1014.3
20260905172157 95 261 2.6 4.3 0.00 0.00 0.00 62 1014.6
20260905171653 95 343 2.6 4.3 0.00 0.00 0.00 63 1014.4
20260905171149 95 290 0.9 1.7 0.00 0.00 0.00 64 1014.4
20260905170646 95 213 0.0 0.9 0.00 0.00 0.00 62 1014.7
20260905170141 95 295 1.7 4.3 0.00 0.00 0.00 63 1014.5
20260905165640 94 300 1.7 1.7 0.00 0.00 0.00 66 1014.8
20260905165136 95 162 0.9 0.9 0.00 0.00 0.00 66 1014.8
20260905164631 95 165 0.0 0.0 0.00 0.00 0.00 66 1014.7
20260905164130 95 299 0.9 1.7 0.00 0.00 0.00 66 1014.5
20260905163626 95 308 0.9 0.9 0.00 0.00 0.00 63 1014.7
20260905163122 94 216 1.7 1.7 0.00 0.00 0.00 66 1014.7
20260905162618 94 228 0.9 1.7 0.00 0.00 0.00 65 1014.5
20260905162118 94 215 1.7 1.7 0.00 0.00 0.00 66 1014.7
20260905161617 94 232 0.9 0.9 0.00 0.00 0.00 66 1014.6
20260905161115 93 300 1.7 1.7 0.00 0.00 0.00 66 1014.7
20260905160615 93 216 0.9 1.7 0.00 0.00 0.00 67 1014.8
20260905160109 92 226 0.9 0.9 0.00 0.00 0.00 68 1015.1
20260905155604 93 259 3.5 4.3 0.00 0.00 0.00 66 1015.0
20260905155102 93 244 0.9 0.9 0.00 0.00 0.00 66 1014.7
20260905154557 93 220 0.9 0.9 0.00 0.00 0.00 69 1014.7
20260905154053 92 209 0.0 0.0 0.00 0.00 0.00 68 1014.7
20260905153548 92 234 0.9 0.9 0.00 0.00 0.00 69 1014.6
20260905153048 91 223 0.0 0.9 0.00 0.00 0.00 70 1014.4
20260905152543 91 228 1.7 1.7 0.00 0.00 0.00 69 1014.6
20260905152038 91 243 2.6 2.6 0.00 0.00 0.00 69 1014.6
20260905151533 91 145 0.9 0.9 0.00 0.00 0.00 69 1014.6
20260905151029 91 227 0.9 0.9 0.00 0.00 0.00 70 1014.7
20260905150524 90 208 0.0 0.0 0.00 0.00 0.00 71 1014.6
20260905150021 90 253 1.7 1.7 0.00 0.00 0.00 73 1014.5
20260905145514 91 243 2.6 2.6 0.00 0.00 0.00 71 1014.4
20260905145009 90 235 0.0 0.9 0.00 0.00 0.00 74 1014.4
20260905144504 90 212 0.9 0.9 0.00 0.00 0.00 76 1014.2
20260905144003 89 213 0.0 0.0 0.00 0.00 0.00 75 1014.5
20260905143502 89 209 0.9 0.9 0.00 0.00 0.00 76 1014.0
20260905142957 87 240 1.7 1.7 0.00 0.00 0.00 75 1014.0
20260905142456 88 227 0.9 0.9 0.00 0.00 0.00 77 1014.0
20260905141951 87 229 1.7 1.7 0.00 0.00 0.00 76 1013.9
20260905141446 87 224 0.9 1.7 0.00 0.00 0.00 76 1014.0
20260905140943 86 212 0.0 0.9 0.00 0.00 0.00 78 1014.1
20260905140437 86 214 0.0 0.0 0.00 0.00 0.00 78 1014.0
20260905135936 86 215 0.9 0.9 0.00 0.00 0.00 78 1014.1